Location: Warren
(41.8440°N, 79.1450°W)
Time: 20:55:07
(UTC-05:00)

Envisat - Visible Passes

Search period start: 23 January 2018 00:00
Search period end: 02 February 2018 00:00
Orbit: 764 x 766 km, 98.2° (Epoch: 23 January)

Date Brightness Start Highest point End Pass type
(mag) Time Alt. Az. Time Alt. Az. Time Alt. Az.
23 Jan 4.4 18:36:31 18° NE 18:36:31 18° NE 18:39:14 10° NNE visible
23 Jan 4.5 20:16:42 30° NW 20:16:42 30° NW 20:19:22 10° NNW visible
24 Jan 3.6 19:39:16 42° N 19:39:16 42° N 19:42:41 10° N visible
24 Jan 5.9 21:19:27 11° WNW 21:19:27 11° WNW 21:19:54 10° WNW visible
25 Jan 3.8 19:01:50 29° NE 19:01:50 29° NE 19:05:32 10° N visible
25 Jan 5.0 20:42:01 24° WNW 20:42:01 24° WNW 20:44:36 10° NNW visible
26 Jan 4.5 18:24:23 15° ENE 18:24:48 15° ENE 18:27:37 10° NNE visible
26 Jan 3.7 20:04:34 48° NNW 20:04:34 48° NNW 20:08:18 10° NNW visible
27 Jan 3.2 19:27:08 49° NE 19:27:08 49° NE 19:31:28 10° N visible
27 Jan 5.5 21:07:18 17° WNW 21:07:18 17° WNW 21:09:23 10° NW visible
28 Jan 3.9 18:49:39 24° ENE 18:50:05 25° ENE 18:54:10 10° NNE visible
28 Jan 4.3 20:29:50 37° WNW 20:29:50 37° WNW 20:33:40 10° NNW visible
29 Jan 4.7 18:12:11 10° ENE 18:13:50 12° ENE 18:15:43 10° NE visible
29 Jan 2.9 19:52:23 80° NNW 19:52:23 80° NNW 19:57:11 10° NNW visible
30 Jan 3.3 19:14:53 40° E 19:15:29 41° ENE 19:20:14 10° N visible
30 Jan 5.1 20:55:04 23° W 20:55:04 23° W 20:58:40 10° NW visible
31 Jan 4.2 18:37:25 17° E 18:39:05 20° ENE 18:42:43 10° NNE visible
31 Jan 3.7 20:17:35 51° WSW 20:17:41 51° W 20:22:39 10° NNW visible
01 Feb 2.8 19:40:06 59° SE 19:40:57 72° ENE 19:46:02 10° N visible
01 Feb 5.8 21:20:17 13° W 21:20:29 13° W 21:22:52 10° WNW visible
